Location: Gebenbach
(49.5378°N, 11.8735°E)
Time: 02:34:19
(UTC+00:00)

USA 305 - Pass Details

Date: 29 October 2020
Orbit: 569 x 577 km, 54.0° (Epoch: 22 November)

Event Time Altitude Azimuth Distance (km) Brightness Sun altitude
Rises 17:49:58 0° 296° (WNW) 2,788 7.6 -19.1°
Reaches altitude 10° 17:52:16 10° 291° (WNW) 1,885 6.6 -19.5°
Maximum altitude 17:56:25 50° 216° (SW) 735 3.6 -20.2°
Enters shadow 17:58:08 30° 158° (SSE) 1,025 3.9 -20.5°
